Time,TemperatureF,DewpointF,PressureIn,WindDirection,WindDirectionDegrees,WindSpeedMPH,WindSpeedGustMPH,Humidity,HourlyPrecipIn,Conditions,Clouds,dailyrainin,SoftwareType,DateUTC
2013-04-07 00:03:00,39.0,12.0,-100.00,SSE,155,5.0,13.0,32,-99.99,,,-99.99,,2013-04-07 04:03:00,
2013-04-07 00:15:00,39.0,14.0,-100.00,SSE,150,4.0,11.0,36,-99.99,,,-99.99,,2013-04-07 04:15:00,
2013-04-07 00:23:00,39.0,14.0,-100.00,SSE,150,4.0,11.0,36,-99.99,,,-99.99,,2013-04-07 04:23:00,
2013-04-07 00:32:00,38.0,15.0,-100.00,ESE,115,3.0,9.0,39,-99.99,,,-99.99,,2013-04-07 04:32:00,
2013-04-07 00:43:00,37.0,16.0,-100.00,SE,140,3.0,8.0,42,-99.99,,,-99.99,,2013-04-07 04:43:00,
2013-04-07 00:52:00,37.0,16.0,-100.00,SE,140,3.0,8.0,42,-99.99,,,-99.99,,2013-04-07 04:52:00,
2013-04-07 01:02:00,37.0,18.0,-100.00,ESE,110,2.0,7.0,46,-99.99,,,-99.99,,2013-04-07 05:02:00,
2013-04-07 01:12:00,36.0,19.0,-100.00,ESE,105,1.0,5.0,48,-99.99,,,-99.99,,2013-04-07 05:12:00,
2013-04-07 01:23:00,36.0,19.0,-100.00,ESE,105,1.0,5.0,48,-99.99,,,-99.99,,2013-04-07 05:23:00,
2013-04-07 01:43:00,36.0,20.0,-100.00,SSE,165,1.0,3.0,53,-99.99,,,-99.99,,2013-04-07 05:43:00,
2013-04-07 01:52:00,36.0,20.0,-100.00,SSE,165,1.0,3.0,53,-99.99,,,-99.99,,2013-04-07 05:52:00,
2013-04-07 02:02:00,35.0,21.0,-100.00,ESE,105,1.0,4.0,55,-99.99,,,-99.99,,2013-04-07 06:02:00,
2013-04-07 02:12:00,35.0,21.0,-100.00,SSE,155,2.0,4.0,57,-99.99,,,-99.99,,2013-04-07 06:12:00,
2013-04-07 02:22:00,35.0,21.0,-100.00,SSE,155,2.0,4.0,57,-99.99,,,-99.99,,2013-04-07 06:22:00,
2013-04-07 02:32:00,35.0,22.0,-100.00,East,85,1.0,5.0,59,-99.99,,,-99.99,,2013-04-07 06:32:00,
2013-04-07 02:43:00,35.0,22.0,-100.00,NE,55,0.0,3.0,60,-99.99,,,-99.99,,2013-04-07 06:43:00,
2013-04-07 02:53:00,35.0,22.0,-100.00,NE,55,0.0,3.0,60,-99.99,,,-99.99,,2013-04-07 06:53:00,
2013-04-07 03:02:00,35.0,23.0,-100.00,NNW,335,3.0,7.0,61,-99.99,,,-99.99,,2013-04-07 07:02:00,
2013-04-07 03:12:00,35.0,23.0,-100.00,NNW,335,3.0,7.0,61,-99.99,,,-99.99,,2013-04-07 07:12:00,
2013-04-07 03:33:00,35.0,23.0,-100.00,SW,235,3.0,8.0,62,-99.99,,,-99.99,,2013-04-07 07:33:00,
2013-04-07 03:42:00,35.0,24.0,-100.00,South,190,4.0,11.0,62,-99.99,,,-99.99,,2013-04-07 07:42:00,
2013-04-07 03:52:00,35.0,24.0,-100.00,South,190,4.0,11.0,62,-99.99,,,-99.99,,2013-04-07 07:52:00,
2013-04-07 04:02:00,35.0,24.0,-100.00,SSW,195,6.0,12.0,62,-99.99,,,-99.99,,2013-04-07 08:02:00,
2013-04-07 04:13:00,35.0,24.0,-100.00,SSE,165,5.0,11.0,62,-99.99,,,-99.99,,2013-04-07 08:13:00,
2013-04-07 04:22:00,35.0,24.0,-100.00,SSE,165,5.0,11.0,62,-99.99,,,-99.99,,2013-04-07 08:22:00,
2013-04-07 04:33:00,35.0,24.0,-100.00,SSW,210,3.0,8.0,63,-99.99,,,-99.99,,2013-04-07 08:33:00,
2013-04-07 04:42:00,35.0,24.0,-100.00,SW,215,3.0,8.0,63,-99.99,,,-99.99,,2013-04-07 08:42:00,
2013-04-07 04:52:00,35.0,24.0,-100.00,SW,215,3.0,8.0,63,-99.99,,,-99.99,,2013-04-07 08:52:00,
2013-04-07 05:02:00,35.0,24.0,-100.00,SW,225,2.0,7.0,64,-99.99,,,-99.99,,2013-04-07 09:02:00,
2013-04-07 05:13:00,35.0,24.0,-100.00,SSW,210,4.0,8.0,63,-99.99,,,-99.99,,2013-04-07 09:13:00,
2013-04-07 05:23:00,35.0,24.0,-100.00,SSW,210,4.0,8.0,63,-99.99,,,-99.99,,2013-04-07 09:23:00,
2013-04-07 05:34:00,35.0,24.0,-100.00,SSW,205,4.0,10.0,63,-99.99,,,-99.99,,2013-04-07 09:34:00,
2013-04-07 05:43:00,35.0,24.0,-100.00,SSW,205,3.0,9.0,63,-99.99,,,-99.99,,2013-04-07 09:43:00,
2013-04-07 05:53:00,35.0,24.0,-100.00,SSW,205,3.0,9.0,63,-99.99,,,-99.99,,2013-04-07 09:53:00,
2013-04-07 06:04:00,35.0,24.0,-100.00,South,180,4.0,13.0,63,-99.99,,,-99.99,,2013-04-07 10:04:00,
2013-04-07 06:14:00,35.0,24.0,-100.00,SSW,200,4.0,13.0,62,-99.99,,,-99.99,,2013-04-07 10:14:00,
2013-04-07 06:23:00,35.0,24.0,-100.00,SSW,200,4.0,13.0,62,-99.99,,,-99.99,,2013-04-07 10:23:00,
2013-04-07 06:34:00,36.0,23.0,-100.00,SW,235,4.0,9.0,60,-99.99,,,-99.99,,2013-04-07 10:34:00,
2013-04-07 06:43:00,36.0,23.0,-100.00,SW,220,6.0,10.0,59,-99.99,,,-99.99,,2013-04-07 10:43:00,
2013-04-07 06:53:00,36.0,23.0,-100.00,SW,220,6.0,10.0,59,-99.99,,,-99.99,,2013-04-07 10:53:00,
2013-04-07 07:03:00,36.0,23.0,-100.00,SSW,205,4.0,11.0,60,-99.99,,,-99.99,,2013-04-07 11:03:00,
2013-04-07 07:13:00,36.0,23.0,-100.00,SSW,205,4.0,11.0,60,-99.99,,,-99.99,,2013-04-07 11:13:00,
2013-04-07 07:33:00,36.0,24.0,-100.00,SSW,200,3.0,12.0,60,-99.99,,,-99.99,,2013-04-07 11:33:00,
2013-04-07 07:43:00,36.0,24.0,-100.00,SSW,200,3.0,12.0,60,-99.99,,,-99.99,,2013-04-07 11:43:00,
2013-04-07 08:03:00,36.0,25.0,-100.00,SW,225,5.0,9.0,63,-99.99,,,-99.99,,2013-04-07 12:03:00,
2013-04-07 08:13:00,36.0,25.0,-100.00,SSW,195,4.0,10.0,64,-99.99,,,-99.99,,2013-04-07 12:13:00,
2013-04-07 08:23:00,36.0,25.0,-100.00,SSW,195,4.0,10.0,64,-99.99,,,-99.99,,2013-04-07 12:23:00,
2013-04-07 08:34:00,36.0,26.0,-100.00,SW,220,5.0,9.0,65,-99.99,,,-99.99,,2013-04-07 12:34:00,
2013-04-07 08:43:00,37.0,26.0,-100.00,SW,220,4.0,10.0,64,-99.99,,,-99.99,,2013-04-07 12:43:00,
2013-04-07 08:53:00,37.0,26.0,-100.00,SW,220,4.0,10.0,64,-99.99,,,-99.99,,2013-04-07 12:53:00,
2013-04-07 09:05:00,38.0,26.0,-100.00,SW,220,4.0,14.0,62,-99.99,,,-99.99,,2013-04-07 13:05:00,
2013-04-07 09:23:00,39.0,27.0,-100.00,WNW,300,3.0,12.0,62,-99.99,,,-99.99,,2013-04-07 13:23:00,
2013-04-07 09:33:00,40.0,27.0,-100.00,SSW,200,8.0,17.0,60,-99.99,,,-99.99,,2013-04-07 13:33:00,
2013-04-07 09:43:00,40.0,27.0,-100.00,SSW,200,8.0,17.0,60,-99.99,,,-99.99,,2013-04-07 13:43:00,
2013-04-07 10:03:00,42.0,27.0,-100.00,South,190,11.0,19.0,55,-99.99,,,-99.99,,2013-04-07 14:03:00,
2013-04-07 10:13:00,44.0,27.0,-100.00,SW,230,10.0,21.0,51,-99.99,,,-99.99,,2013-04-07 14:13:00,
2013-04-07 10:23:00,44.0,27.0,-100.00,SW,230,10.0,21.0,51,-99.99,,,-99.99,,2013-04-07 14:23:00,
2013-04-07 10:33:00,44.0,26.0,-100.00,SSW,200,10.0,21.0,49,-99.99,,,-99.99,,2013-04-07 14:33:00,
2013-04-07 10:44:00,45.0,26.0,-100.00,SSE,165,8.0,21.0,47,-99.99,,,-99.99,,2013-04-07 14:44:00,
2013-04-07 10:53:00,45.0,26.0,-100.00,SSE,165,8.0,21.0,47,-99.99,,,-99.99,,2013-04-07 14:53:00,
2013-04-07 11:03:00,46.0,26.0,-100.00,SSW,195,8.0,18.0,46,-99.99,,,-99.99,,2013-04-07 15:03:00,
2013-04-07 11:13:00,46.0,26.0,-100.00,SW,215,8.0,23.0,45,-99.99,,,-99.99,,2013-04-07 15:13:00,
2013-04-07 11:23:00,46.0,26.0,-100.00,SW,215,8.0,23.0,45,-99.99,,,-99.99,,2013-04-07 15:23:00,
2013-04-07 11:45:00,48.0,26.0,-100.00,SW,220,11.0,21.0,41,-99.99,,,-99.99,,2013-04-07 15:45:00,
2013-04-07 11:55:00,48.0,26.0,-100.00,SW,220,11.0,21.0,41,-99.99,,,-99.99,,2013-04-07 15:55:00,
2013-04-07 12:05:00,49.0,26.0,-100.00,SSW,210,5.0,22.0,40,-99.99,,,-99.99,,2013-04-07 16:05:00,
2013-04-07 12:14:00,50.0,26.0,-100.00,WSW,240,6.0,19.0,39,-99.99,,,-99.99,,2013-04-07 16:14:00,
2013-04-07 12:25:00,50.0,26.0,-100.00,WSW,240,6.0,19.0,39,-99.99,,,-99.99,,2013-04-07 16:25:00,
2013-04-07 12:34:00,52.0,26.0,-100.00,South,170,7.0,15.0,37,-99.99,,,-99.99,,2013-04-07 16:34:00,
2013-04-07 12:43:00,52.0,26.0,-100.00,SE,145,9.0,17.0,35,-99.99,,,-99.99,,2013-04-07 16:43:00,
2013-04-07 12:53:00,52.0,26.0,-100.00,SE,145,9.0,17.0,35,-99.99,,,-99.99,,2013-04-07 16:53:00,
2013-04-07 13:05:00,54.0,26.0,-100.00,ESE,120,4.0,14.0,34,-99.99,,,-99.99,,2013-04-07 17:05:00,
2013-04-07 13:14:00,54.0,26.0,-100.00,SSW,200,7.0,20.0,33,-99.99,,,-99.99,,2013-04-07 17:14:00,
2013-04-07 13:24:00,54.0,26.0,-100.00,SSW,200,7.0,20.0,33,-99.99,,,-99.99,,2013-04-07 17:24:00,
2013-04-07 13:33:00,55.0,26.0,-100.00,South,185,7.0,20.0,32,-99.99,,,-99.99,,2013-04-07 17:33:00,
2013-04-07 13:43:00,55.0,25.0,-100.00,South,190,12.0,22.0,31,-99.99,,,-99.99,,2013-04-07 17:43:00,
2013-04-07 13:53:00,55.0,25.0,-100.00,South,190,12.0,22.0,31,-99.99,,,-99.99,,2013-04-07 17:53:00,
2013-04-07 14:14:00,56.0,26.0,-100.00,South,190,13.0,23.0,31,-99.99,,,-99.99,,2013-04-07 18:14:00,
2013-04-07 14:23:00,56.0,26.0,-100.00,South,190,13.0,23.0,31,-99.99,,,-99.99,,2013-04-07 18:23:00,
2013-04-07 14:33:00,57.0,27.0,-100.00,SSW,195,8.0,17.0,31,-99.99,,,-99.99,,2013-04-07 18:33:00,
2013-04-07 14:43:00,57.0,27.0,-100.00,SSE,150,6.0,20.0,31,-99.99,,,-99.99,,2013-04-07 18:43:00,
2013-04-07 14:52:00,57.0,27.0,-100.00,SSE,150,6.0,20.0,31,-99.99,,,-99.99,,2013-04-07 18:52:00,
2013-04-07 15:13:00,59.0,29.0,-100.00,SW,215,10.0,19.0,32,-99.99,,,-99.99,,2013-04-07 19:13:00,
2013-04-07 15:23:00,59.0,29.0,-100.00,SW,215,10.0,19.0,32,-99.99,,,-99.99,,2013-04-07 19:23:00,
2013-04-07 15:33:00,59.0,29.0,-100.00,SSW,205,9.0,22.0,32,-99.99,,,-99.99,,2013-04-07 19:33:00,
2013-04-07 15:43:00,60.0,31.0,-100.00,SSW,195,9.0,20.0,33,-99.99,,,-99.99,,2013-04-07 19:43:00,
2013-04-07 15:53:00,60.0,31.0,-100.00,SSW,195,9.0,20.0,33,-99.99,,,-99.99,,2013-04-07 19:53:00,
2013-04-07 16:03:00,60.0,31.0,-100.00,SSE,155,8.0,17.0,33,-99.99,,,-99.99,,2013-04-07 20:03:00,
2013-04-07 16:13:00,60.0,31.0,-100.00,SSW,195,9.0,20.0,33,-99.99,,,-99.99,,2013-04-07 20:13:00,
2013-04-07 16:23:00,60.0,31.0,-100.00,SSW,195,9.0,20.0,33,-99.99,,,-99.99,,2013-04-07 20:23:00,
2013-04-07 16:33:00,60.0,31.0,-100.00,South,190,9.0,21.0,34,-99.99,,,-99.99,,2013-04-07 20:33:00,
2013-04-07 16:44:00,60.0,32.0,-100.00,SW,235,9.0,18.0,34,-99.99,,,-99.99,,2013-04-07 20:44:00,
2013-04-07 16:45:00,60.0,33.0,-100.00,SW,220,12.0,19.0,36,-99.99,,,-99.99,,2013-04-07 20:45:00,
2013-04-07 16:53:00,60.0,32.0,-100.00,SW,235,9.0,18.0,34,-99.99,,,-99.99,,2013-04-07 20:53:00,
2013-04-07 17:04:00,61.0,33.0,-100.00,WSW,245,9.0,17.0,35,-99.99,,,-99.99,,2013-04-07 21:04:00,
2013-04-07 17:14:00,60.0,33.0,-100.00,SW,215,12.0,20.0,36,-99.99,,,-99.99,,2013-04-07 21:14:00,
2013-04-07 17:23:00,60.0,33.0,-100.00,SW,215,12.0,20.0,36,-99.99,,,-99.99,,2013-04-07 21:23:00,
2013-04-07 17:35:00,60.0,33.0,-100.00,SW,220,12.0,19.0,36,-99.99,,,-99.99,,2013-04-07 21:35:00,
2013-04-07 17:53:00,59.0,32.0,-100.00,SSW,205,10.0,20.0,37,-99.99,,,-99.99,,2013-04-07 21:53:00,
2013-04-07 18:05:00,57.0,32.0,-100.00,SW,215,7.0,19.0,39,-99.99,,,-99.99,,2013-04-07 22:05:00,
2013-04-07 18:15:00,57.0,33.0,-100.00,SW,215,9.0,17.0,39,-99.99,,,-99.99,,2013-04-07 22:15:00,
2013-04-07 18:24:00,57.0,33.0,-100.00,SW,215,9.0,17.0,39,-99.99,,,-99.99,,2013-04-07 22:24:00,
2013-04-07 18:34:00,57.0,33.0,-100.00,SW,220,7.0,20.0,40,-99.99,,,-99.99,,2013-04-07 22:34:00,
2013-04-07 18:43:00,57.0,33.0,-100.00,SW,230,8.0,19.0,40,-99.99,,,-99.99,,2013-04-07 22:43:00,
2013-04-07 18:54:00,57.0,33.0,-100.00,SW,230,8.0,19.0,40,-99.99,,,-99.99,,2013-04-07 22:54:00,
2013-04-07 19:04:00,57.0,33.0,-100.00,WSW,245,5.0,17.0,40,-99.99,,,-99.99,,2013-04-07 23:04:00,
2013-04-07 19:13:00,57.0,34.0,-100.00,SW,220,8.0,15.0,41,-99.99,,,-99.99,,2013-04-07 23:13:00,
2013-04-07 19:23:00,57.0,34.0,-100.00,SW,220,8.0,15.0,41,-99.99,,,-99.99,,2013-04-07 23:23:00,
2013-04-07 19:33:00,57.0,34.0,-100.00,SSW,195,7.0,16.0,41,-99.99,,,-99.99,,2013-04-07 23:33:00,
2013-04-07 19:43:00,57.0,34.0,-100.00,SSW,195,7.0,15.0,42,-99.99,,,-99.99,,2013-04-07 23:43:00,
2013-04-07 19:52:00,57.0,34.0,-100.00,SSW,195,7.0,15.0,42,-99.99,,,-99.99,,2013-04-07 23:52:00,
2013-04-07 20:13:00,56.0,34.0,-100.00,SSW,195,8.0,13.0,43,-99.99,,,-99.99,,2013-04-08 00:13:00,
2013-04-07 20:23:00,56.0,34.0,-100.00,SSW,195,8.0,13.0,43,-99.99,,,-99.99,,2013-04-08 00:23:00,
2013-04-07 20:33:00,56.0,34.0,-100.00,WSW,245,4.0,12.0,43,-99.99,,,-99.99,,2013-04-08 00:33:00,
2013-04-07 20:42:00,56.0,34.0,-100.00,SSW,195,4.0,16.0,44,-99.99,,,-99.99,,2013-04-08 00:42:00,
2013-04-07 20:53:00,56.0,34.0,-100.00,SSW,195,4.0,16.0,44,-99.99,,,-99.99,,2013-04-08 00:53:00,
2013-04-07 21:03:00,55.0,34.0,-100.00,South,185,3.0,14.0,44,-99.99,,,-99.99,,2013-04-08 01:03:00,
2013-04-07 21:13:00,55.0,34.0,-100.00,South,175,4.0,12.0,45,-99.99,,,-99.99,,2013-04-08 01:13:00,
2013-04-07 21:23:00,55.0,34.0,-100.00,South,175,4.0,12.0,45,-99.99,,,-99.99,,2013-04-08 01:23:00,
2013-04-07 21:34:00,55.0,34.0,-100.00,SSW,210,6.0,18.0,45,-99.99,,,-99.99,,2013-04-08 01:34:00,
2013-04-07 21:44:00,54.0,34.0,-100.00,South,190,5.0,13.0,46,-99.99,,,-99.99,,2013-04-08 01:44:00,
2013-04-07 21:55:00,54.0,34.0,-100.00,South,190,5.0,13.0,46,-99.99,,,-99.99,,2013-04-08 01:55:00,
2013-04-07 22:00:00,53.0,34.0,-100.00,SW,215,5.0,11.0,47,-99.99,,,-99.99,,2013-04-08 02:00:00,
2013-04-07 22:03:00,54.0,34.0,-100.00,South,190,6.0,12.0,46,-99.99,,,-99.99,,2013-04-08 02:03:00,
2013-04-07 22:12:00,54.0,34.0,-100.00,South,180,6.0,14.0,46,-99.99,,,-99.99,,2013-04-08 02:12:00,
2013-04-07 22:22:00,54.0,34.0,-100.00,South,180,6.0,14.0,46,-99.99,,,-99.99,,2013-04-08 02:22:00,
2013-04-07 22:33:00,54.0,33.0,-100.00,South,185,6.0,11.0,46,-99.99,,,-99.99,,2013-04-08 02:33:00,
2013-04-07 22:48:00,53.0,34.0,-100.00,SW,215,5.0,11.0,47,-99.99,,,-99.99,,2013-04-08 02:48:00,
2013-04-07 22:55:00,53.0,34.0,-100.00,SW,215,5.0,11.0,47,-99.99,,,-99.99,,2013-04-08 02:55:00,
2013-04-07 23:16:00,53.0,34.0,-100.00,South,170,5.0,12.0,49,-99.99,,,-99.99,,2013-04-08 03:16:00,
2013-04-07 23:26:00,53.0,34.0,-100.00,South,170,5.0,12.0,49,-99.99,,,-99.99,,2013-04-08 03:26:00,
2013-04-07 23:36:00,53.0,35.0,-100.00,South,185,5.0,11.0,51,-99.99,,,-99.99,,2013-04-08 03:36:00,
2013-04-07 23:58:00,52.0,36.0,-100.00,SW,225,5.0,9.0,53,-99.99,,,-99.99,,2013-04-08 03:58:00,